owner,sensor,date,latitude,longitude,vertical_datum,direction_of_sea_water_velocity,sea_water_speed,upward_sea_water_velocity,qcFlag 
COMPS,ioos:station:USF.COMPS:C10:1,2008-12-03T04:00:00Z,27.1690,-82.9260,4.0,311.423665625,22.6715680975,-99999.0,'1111122,1111122,1199999999' 
COMPS,ioos:station:USF.COMPS:C10:1,2008-12-03T05:00:00Z,27.1690,-82.9260,4.0,300.963756532,23.3238075794,-99999.0,'1111122,1111122,1199999999' 
COMPS,ioos:station:USF.COMPS:C10:1,2008-12-03T06:00:00Z,27.1690,-82.9260,4.0,288.434948823,22.1359436212,-99999.0,'1111122,1111122,1199999999' 
COMPS,ioos:station:USF.COMPS:C10:1,2008-12-03T07:00:00Z,27.1690,-82.9260,4.0,289.179008026,24.3515913238,-99999.0,'1111122,1111122,1199999999' 
COMPS,ioos:station:USF.COMPS:C10:1,2008-12-03T08:00:00Z,27.1690,-82.9260,4.0,284.743562836,19.6468827044,-99999.0,'1111122,1111122,1199999999' 
COMPS,ioos:station:USF.COMPS:C10:1,2008-12-03T09:00:00Z,27.1690,-82.9260,4.0,281.309932474,20.3960780544,-99999.0,'1111122,1111122,1199999999' 
COMPS,ioos:station:USF.COMPS:C10:1,2008-12-03T10:00:00Z,27.1690,-82.9260,4.0,273.17983012,18.0277563773,-99999.0,'1111122,1111122,1199999999' 
COMPS,ioos:station:USF.COMPS:C10:1,2008-12-03T11:00:00Z,27.1690,-82.9260,4.0,278.746162263,13.152946438,-99999.0,'1111122,1111122,1199999999' 
COMPS,ioos:station:USF.COMPS:C10:1,2008-12-03T12:00:00Z,27.1690,-82.9260,4.0,274.398705355,13.0384048104,-99999.0,'1111122,1111122,1199999999' 
COMPS,ioos:station:USF.COMPS:C10:1,2008-12-03T13:00:00Z,27.1690,-82.9260,4.0,276.340191746,9.05538513814,-99999.0,'1111122,1111122,1199999999' 
COMPS,ioos:station:USF.COMPS:C10:1,2008-12-03T14:00:00Z,27.1690,-82.9260,4.0,293.198590514,7.61577310586,-99999.0,'1111122,1111122,1199999999' 
COMPS,ioos:station:USF.COMPS:C10:1,2008-12-03T15:00:00Z,27.1690,-82.9260,4.0,321.340191746,6.40312423743,-99999.0,'1111122,1111122,1199999999' 
COMPS,ioos:station:USF.COMPS:C10:1,2008-12-03T16:00:00Z,27.1690,-82.9260,4.0,319.398705355,9.21954445729,-99999.0,'1111122,1111122,1199999999' 
COMPS,ioos:station:USF.COMPS:C10:1,2008-12-03T17:00:00Z,27.1690,-82.9260,4.0,329.036243468,11.6619037897,-99999.0,'1111122,1111122,1199999999' 
COMPS,ioos:station:USF.COMPS:C10:1,2008-12-03T18:00:00Z,27.1690,-82.9260,4.0,318.814074834,10.6301458127,-99999.0,'1111122,1111122,1199999999' 
COMPS,ioos:station:USF.COMPS:C10:1,2008-12-03T19:00:00Z,27.1690,-82.9260,4.0,315.0,12.7279220614,-99999.0,'1111122,1111122,1199999999' 
COMPS,ioos:station:USF.COMPS:C10:1,2008-12-03T20:00:00Z,27.1690,-82.9260,4.0,306.027373385,13.6014705087,-99999.0,'1111122,1111122,1199999999' 
COMPS,ioos:station:USF.COMPS:C10:1,2008-12-03T21:00:00Z,27.1690,-82.9260,4.0,292.619864948,13.0,-99999.0,'1111122,1111122,1199999999' 
COMPS,ioos:station:USF.COMPS:C10:1,2008-12-03T22:00:00Z,27.1690,-82.9260,4.0,294.44395478,12.0830459736,-99999.0,'1111122,1111122,1199999999' 
COMPS,ioos:station:USF.COMPS:C10:1,2008-12-03T23:00:00Z,27.1690,-82.9260,4.0,294.44395478,12.0830459736,-99999.0,'1111122,1111122,1199999999' 
COMPS,ioos:station:USF.COMPS:C10:1,2008-12-04T00:00:00Z,27.1690,-82.9260,4.0,298.610459666,12.5299640861,-99999.0,'1111122,1111122,1199999999' 
COMPS,ioos:station:USF.COMPS:C10:1,2008-12-04T02:00:00Z,27.1690,-82.9260,4.0,305.537677792,8.60232526704,-99999.0,'1111122,1111122,1199999999' 
COMPS,ioos:station:USF.COMPS:C10:1,2008-12-04T03:00:00Z,27.1690,-82.9260,4.0,310.601294645,9.21954445729,-99999.0,'1111122,1111122,1199999999' 
COMPS,ioos:station:USF.COMPS:C10:1,2008-12-04T04:00:00Z,27.1690,-82.9260,4.0,288.434948823,9.48683298051,-99999.0,'1111122,1111122,1199999999' 
COMPS,ioos:station:USF.COMPS:C10:1,2008-12-04T05:00:00Z,27.1690,-82.9260,4.0,310.601294645,9.21954445729,-99999.0,'1111122,1111122,1199999999' 
COMPS,ioos:station:USF.COMPS:C10:1,2008-12-04T06:00:00Z,27.1690,-82.9260,4.0,291.801409486,10.7703296143,-99999.0,'1111122,1111122,1199999999' 
COMPS,ioos:station:USF.COMPS:C10:1,2008-12-04T07:00:00Z,27.1690,-82.9260,4.0,284.036243468,12.3693168769,-99999.0,'1111122,1111122,1199999999' 
COMPS,ioos:station:USF.COMPS:C10:1,2008-12-04T08:00:00Z,27.1690,-82.9260,4.0,291.801409486,10.7703296143,-99999.0,'1111122,1111122,1199999999' 
COMPS,ioos:station:USF.COMPS:C10:1,2008-12-04T09:00:00Z,27.1690,-82.9260,4.0,282.528807709,9.21954445729,-99999.0,'1111122,1111122,1199999999' 
COMPS,ioos:station:USF.COMPS:C10:1,2008-12-04T10:00:00Z,27.1690,-82.9260,4.0,264.289406863,10.0498756211,-99999.0,'1111122,1111122,1199999999' 
COMPS,ioos:station:USF.COMPS:C10:1,2008-12-04T11:00:00Z,27.1690,-82.9260,4.0,263.659808254,9.05538513814,-99999.0,'1111122,1111122,1199999999' 
COMPS,ioos:station:USF.COMPS:C10:1,2008-12-04T12:00:00Z,27.1690,-82.9260,4.0,255.963756532,8.24621125124,-99999.0,'1111122,1111122,1199999999' 
COMPS,ioos:station:USF.COMPS:C10:1,2008-12-04T13:00:00Z,27.1690,-82.9260,4.0,270.0,4.0,-99999.0,'1111122,1111122,1199999999' 
COMPS,ioos:station:USF.COMPS:C10:1,2008-12-04T14:00:00Z,27.1690,-82.9260,4.0,251.565051177,3.16227766017,-99999.0,'1111122,1111122,1199999999' 
COMPS,ioos:station:USF.COMPS:C10:1,2008-12-04T15:00:00Z,27.1690,-82.9260,4.0,288.434948823,3.16227766017,-99999.0,'1111122,1111122,1199999999' 
COMPS,ioos:station:USF.COMPS:C10:1,2008-12-04T16:00:00Z,27.1690,-82.9260,4.0,296.565051177,2.2360679775,-99999.0,'1111122,1111122,1199999999' 
COMPS,ioos:station:USF.COMPS:C10:1,2008-12-04T17:00:00Z,27.1690,-82.9260,4.0,326.309932474,3.60555127546,-99999.0,'1111122,1111122,1199999999' 
COMPS,ioos:station:USF.COMPS:C10:1,2008-12-04T18:00:00Z,27.1690,-82.9260,4.0,338.198590514,5.38516480713,-99999.0,'1111122,1111122,1199999999' 
COMPS,ioos:station:USF.COMPS:C10:1,2008-12-04T19:00:00Z,27.1690,-82.9260,4.0,0.0,5.0,-99999.0,'1111122,1114422,1199999999' 
COMPS,ioos:station:USF.COMPS:C10:1,2008-12-04T20:00:00Z,27.1690,-82.9260,4.0,341.565051177,6.32455532034,-99999.0,'1111122,1111122,1199999999' 
COMPS,ioos:station:USF.COMPS:C10:1,2008-12-04T21:00:00Z,27.1690,-82.9260,4.0,309.805571092,7.81024967591,-99999.0,'1111122,1111122,1199999999' 
COMPS,ioos:station:USF.COMPS:C10:1,2008-12-04T22:00:00Z,27.1690,-82.9260,4.0,296.565051177,8.94427191,-99999.0,'1111122,1111122,1199999999' 
COMPS,ioos:station:USF.COMPS:C10:1,2008-12-04T23:00:00Z,27.1690,-82.9260,4.0,302.005383208,9.43398113206,-99999.0,'1111122,1111122,1199999999' 
COMPS,ioos:station:USF.COMPS:C10:1,2008-12-05T00:00:00Z,27.1690,-82.9260,4.0,302.005383208,9.43398113206,-99999.0,'1111122,1111122,1199999999' 
COMPS,ioos:station:USF.COMPS:C10:1,2008-12-05T01:00:00Z,27.1690,-82.9260,4.0,289.983106522,11.7046999107,-99999.0,'1111122,1111122,1199999999' 
COMPS,ioos:station:USF.COMPS:C10:1,2008-12-05T02:00:00Z,27.1690,-82.9260,4.0,288.434948823,9.48683298051,-99999.0,'1111122,1111122,1199999999' 
COMPS,ioos:station:USF.COMPS:C10:1,2008-12-05T03:00:00Z,27.1690,-82.9260,4.0,302.005383208,9.43398113206,-99999.0,'1111122,1111122,1199999999' 
COMPS,ioos:station:USF.COMPS:C10:1,2008-12-05T04:00:00Z,27.1690,-82.9260,4.0,296.565051177,8.94427191,-99999.0,'1111122,1111122,1199999999' 
COMPS,ioos:station:USF.COMPS:C10:1,2008-12-05T05:00:00Z,27.1690,-82.9260,4.0,306.869897646,10.0,-99999.0,'1111122,1111122,1199999999' 
COMPS,ioos:station:USF.COMPS:C10:1,2008-12-05T06:00:00Z,27.1690,-82.9260,4.0,322.125016349,11.401754251,-99999.0,'1111122,1111122,1199999999' 
COMPS,ioos:station:USF.COMPS:C10:1,2008-12-05T07:00:00Z,27.1690,-82.9260,4.0,311.185925166,10.6301458127,-99999.0,'1111122,1111122,1199999999' 
COMPS,ioos:station:USF.COMPS:C10:1,2008-12-05T08:00:00Z,27.1690,-82.9260,4.0,318.366460663,12.0415945788,-99999.0,'1111122,1111122,1199999999' 
COMPS,ioos:station:USF.COMPS:C10:1,2008-12-05T09:00:00Z,27.1690,-82.9260,4.0,311.633539337,12.0415945788,-99999.0,'1111122,1111122,1199999999' 
COMPS,ioos:station:USF.COMPS:C10:1,2008-12-05T10:00:00Z,27.1690,-82.9260,4.0,300.963756532,11.6619037897,-99999.0,'1111122,1111122,1199999999' 
COMPS,ioos:station:USF.COMPS:C10:1,2008-12-05T11:00:00Z,27.1690,-82.9260,4.0,285.255118703,11.401754251,-99999.0,'1111122,1111122,1199999999' 
COMPS,ioos:station:USF.COMPS:C10:1,2008-12-05T12:00:00Z,27.1690,-82.9260,4.0,293.962488975,9.8488578018,-99999.0,'1111122,1111122,1199999999' 
COMPS,ioos:station:USF.COMPS:C10:1,2008-12-05T13:00:00Z,27.1690,-82.9260,4.0,276.340191746,9.05538513814,-99999.0,'1111122,1111122,1199999999' 
COMPS,ioos:station:USF.COMPS:C10:1,2008-12-05T14:00:00Z,27.1690,-82.9260,4.0,303.690067526,7.21110255093,-99999.0,'1111122,1111122,1199999999' 
COMPS,ioos:station:USF.COMPS:C10:1,2008-12-05T15:00:00Z,27.1690,-82.9260,4.0,315.0,5.65685424949,-99999.0,'1111122,1111122,1199999999' 
COMPS,ioos:station:USF.COMPS:C10:1,2008-12-05T16:00:00Z,27.1690,-82.9260,4.0,323.130102354,5.0,-99999.0,'1111122,1111122,1199999999' 
COMPS,ioos:station:USF.COMPS:C10:1,2008-12-05T17:00:00Z,27.1690,-82.9260,4.0,0.0,9.0,-99999.0,'1111122,1114422,1199999999' 
COMPS,ioos:station:USF.COMPS:C10:1,2008-12-05T18:00:00Z,27.1690,-82.9260,4.0,348.690067526,10.1980390272,-99999.0,'1111122,1111122,1199999999' 
COMPS,ioos:station:USF.COMPS:C10:1,2008-12-05T19:00:00Z,27.1690,-82.9260,4.0,344.744881297,11.401754251,-99999.0,'1111122,1111122,1199999999' 
COMPS,ioos:station:USF.COMPS:C10:1,2008-12-05T20:00:00Z,27.1690,-82.9260,4.0,340.016893478,11.7046999107,-99999.0,'1111122,1111122,1199999999' 
COMPS,ioos:station:USF.COMPS:C10:1,2008-12-05T21:00:00Z,27.1690,-82.9260,4.0,338.198590514,10.7703296143,-99999.0,'1111122,1111122,1199999999' 
COMPS,ioos:station:USF.COMPS:C10:1,2008-12-05T22:00:00Z,27.1690,-82.9260,4.0,326.309932474,10.8166538264,-99999.0,'1111122,1111122,1199999999' 
COMPS,ioos:station:USF.COMPS:C10:1,2008-12-05T23:00:00Z,27.1690,-82.9260,4.0,311.633539337,12.0415945788,-99999.0,'1111122,1111122,1199999999' 
COMPS,ioos:station:USF.COMPS:C10:1,2008-12-06T00:00:00Z,27.1690,-82.9260,4.0,315.0,11.313708499,-99999.0,'1111122,1111122,1199999999' 
COMPS,ioos:station:USF.COMPS:C10:1,2008-12-06T01:00:00Z,27.1690,-82.9260,4.0,308.659808254,12.8062484749,-99999.0,'1111122,1111122,1199999999' 
COMPS,ioos:station:USF.COMPS:C10:1,2008-12-06T02:00:00Z,27.1690,-82.9260,4.0,307.874983651,11.401754251,-99999.0,'1111122,1111122,1199999999' 
COMPS,ioos:station:USF.COMPS:C10:1,2008-12-06T03:00:00Z,27.1690,-82.9260,4.0,307.874983651,11.401754251,-99999.0,'1111122,1111122,1199999999' 
COMPS,ioos:station:USF.COMPS:C10:1,2008-12-06T05:00:00Z,27.1690,-82.9260,4.0,300.963756532,11.6619037897,-99999.0,'1111122,1111122,1199999999' 
COMPS,ioos:station:USF.COMPS:C10:1,2008-12-06T06:00:00Z,27.1690,-82.9260,4.0,300.963756532,11.6619037897,-99999.0,'1111122,1111122,1199999999' 
COMPS,ioos:station:USF.COMPS:C10:1,2008-12-06T07:00:00Z,27.1690,-82.9260,4.0,303.690067526,14.4222051019,-99999.0,'1111122,1111122,1199999999' 
COMPS,ioos:station:USF.COMPS:C10:1,2008-12-06T08:00:00Z,27.1690,-82.9260,4.0,300.256437164,13.8924439894,-99999.0,'1111122,1111122,1199999999' 
COMPS,ioos:station:USF.COMPS:C10:1,2008-12-06T09:00:00Z,27.1690,-82.9260,4.0,299.744881297,16.1245154966,-99999.0,'1111122,1111122,1199999999' 
COMPS,ioos:station:USF.COMPS:C10:1,2008-12-06T10:00:00Z,27.1690,-82.9260,4.0,287.354024636,16.7630546142,-99999.0,'1111122,1111122,1199999999' 
COMPS,ioos:station:USF.COMPS:C10:1,2008-12-06T11:00:00Z,27.1690,-82.9260,4.0,285.945395901,14.5602197786,-99999.0,'1111122,1111122,1199999999' 
COMPS,ioos:station:USF.COMPS:C10:1,2008-12-06T12:00:00Z,27.1690,-82.9260,4.0,282.994616792,13.3416640641,-99999.0,'1111122,1111122,1199999999' 
COMPS,ioos:station:USF.COMPS:C10:1,2008-12-06T13:00:00Z,27.1690,-82.9260,4.0,274.08561678,14.0356688476,-99999.0,'1111122,1111122,1199999999' 
COMPS,ioos:station:USF.COMPS:C10:1,2008-12-06T14:00:00Z,27.1690,-82.9260,4.0,278.746162263,13.152946438,-99999.0,'1111122,1111122,1199999999' 
COMPS,ioos:station:USF.COMPS:C10:1,2008-12-06T15:00:00Z,27.1690,-82.9260,4.0,275.710593137,10.0498756211,-99999.0,'1111122,1111122,1199999999' 
COMPS,ioos:station:USF.COMPS:C10:1,2008-12-06T16:00:00Z,27.1690,-82.9260,4.0,282.528807709,9.21954445729,-99999.0,'1111122,1111122,1199999999' 
COMPS,ioos:station:USF.COMPS:C10:1,2008-12-06T17:00:00Z,27.1690,-82.9260,4.0,290.55604522,8.54400374532,-99999.0,'1111122,1111122,1199999999' 
COMPS,ioos:station:USF.COMPS:C10:1,2008-12-06T18:00:00Z,27.1690,-82.9260,4.0,315.0,7.07106781187,-99999.0,'1111122,1111122,1199999999' 
COMPS,ioos:station:USF.COMPS:C10:1,2008-12-06T20:00:00Z,27.1690,-82.9260,4.0,351.253837737,13.152946438,-99999.0,'1111122,1111122,1199999999' 
COMPS,ioos:station:USF.COMPS:C10:1,2008-12-06T21:00:00Z,27.1690,-82.9260,4.0,350.537677792,18.2482875909,-99999.0,'1111122,1111122,1199999999' 
COMPS,ioos:station:USF.COMPS:C10:1,2008-12-06T22:00:00Z,27.1690,-82.9260,4.0,346.759480085,17.4642491966,-99999.0,'1111122,1111122,1199999999' 
COMPS,ioos:station:USF.COMPS:C10:1,2008-12-06T23:00:00Z,27.1690,-82.9260,4.0,336.370622269,17.4642491966,-99999.0,'1111122,1111122,1199999999' 
COMPS,ioos:station:USF.COMPS:C10:1,2008-12-07T00:00:00Z,27.1690,-82.9260,4.0,331.927513064,17.0,-99999.0,'1111122,1111122,1199999999' 
COMPS,ioos:station:USF.COMPS:C10:1,2008-12-07T01:00:00Z,27.1690,-82.9260,4.0,323.130102354,15.0,-99999.0,'1111122,1111122,1199999999' 
COMPS,ioos:station:USF.COMPS:C10:1,2008-12-07T02:00:00Z,27.1690,-82.9260,4.0,316.974934011,20.5182845287,-99999.0,'1111122,1111122,1199999999' 
COMPS,ioos:station:USF.COMPS:C10:1,2008-12-07T03:00:00Z,27.1690,-82.9260,4.0,306.869897646,15.0,-99999.0,'1111122,1111122,1199999999' 
COMPS,ioos:station:USF.COMPS:C10:1,2008-12-07T04:00:00Z,27.1690,-82.9260,4.0,298.072486936,17.0,-99999.0,'1111122,1111122,1199999999' 
COMPS,ioos:station:USF.COMPS:C10:1,2008-12-07T05:00:00Z,27.1690,-82.9260,4.0,302.735226272,16.6433169771,-99999.0,'1111122,1111122,1199999999' 
COMPS,ioos:station:USF.COMPS:C10:1,2008-12-07T06:00:00Z,27.1690,-82.9260,4.0,304.695153531,15.8113883008,-99999.0,'1111122,1111122,1199999999' 
COMPS,ioos:station:USF.COMPS:C10:1,2008-12-07T07:00:00Z,27.1690,-82.9260,4.0,315.0,15.5563491861,-99999.0,'1111122,1111122,1199999999' 
COMPS,ioos:station:USF.COMPS:C10:1,2008-12-07T08:00:00Z,27.1690,-82.9260,4.0,308.659808254,19.2093727123,-99999.0,'1111122,1111122,1199999999' 
COMPS,ioos:station:USF.COMPS:C10:1,2008-12-07T09:00:00Z,27.1690,-82.9260,4.0,307.405356631,21.400934559,-99999.0,'1111122,1111122,1199999999' 
COMPS,ioos:station:USF.COMPS:C10:1,2008-12-07T10:00:00Z,27.1690,-82.9260,4.0,310.601294645,18.4390889146,-99999.0,'1111122,1111122,1199999999' 
COMPS,ioos:station:USF.COMPS:C10:1,2008-12-07T11:00:00Z,27.1690,-82.9260,4.0,294.775140569,28.6356421266,-99999.0,'1111122,1111122,1199999999' 
COMPS,ioos:station:USF.COMPS:C10:1,2008-12-07T12:00:00Z,27.1690,-82.9260,4.0,286.389540334,17.7200451467,-99999.0,'1111122,1111122,1199999999' 
COMPS,ioos:station:USF.COMPS:C10:1,2008-12-07T13:00:00Z,27.1690,-82.9260,4.0,300.963756532,17.4928556845,-99999.0,'1111122,1111122,1199999999' 
COMPS,ioos:station:USF.COMPS:C10:1,2008-12-07T14:00:00Z,27.1690,-82.9260,4.0,296.565051177,20.1246117975,-99999.0,'1111122,1111122,1199999999' 
COMPS,ioos:station:USF.COMPS:C10:1,2008-12-07T15:00:00Z,27.1690,-82.9260,4.0,299.357753543,18.3575597507,-99999.0,'1111122,1111122,1199999999' 
COMPS,ioos:station:USF.COMPS:C10:1,2008-12-07T16:00:00Z,27.1690,-82.9260,4.0,290.85445804,22.4722050542,-99999.0,'1111122,1111122,1199999999' 
COMPS,ioos:station:USF.COMPS:C10:1,2008-12-07T17:00:00Z,27.1690,-82.9260,4.0,300.963756532,17.4928556845,-99999.0,'1111122,1111122,1199999999' 
COMPS,ioos:station:USF.COMPS:C10:1,2008-12-07T18:00:00Z,27.1690,-82.9260,4.0,302.735226272,16.6433169771,-99999.0,'1111122,1111122,1199999999' 
COMPS,ioos:station:USF.COMPS:C10:1,2008-12-07T19:00:00Z,27.1690,-82.9260,4.0,315.0,21.2132034356,-99999.0,'1111122,1111122,1199999999' 
COMPS,ioos:station:USF.COMPS:C10:1,2008-12-07T20:00:00Z,27.1690,-82.9260,4.0,311.185925166,21.2602916255,-99999.0,'1111122,1111122,1199999999' 
COMPS,ioos:station:USF.COMPS:C10:1,2008-12-07T21:00:00Z,27.1690,-82.9260,4.0,305.217592968,20.8086520467,-99999.0,'1111122,1111122,1199999999' 
COMPS,ioos:station:USF.COMPS:C10:1,2008-12-07T22:00:00Z,27.1690,-82.9260,4.0,313.152389734,21.9317121995,-99999.0,'1111122,1111122,1199999999' 
COMPS,ioos:station:USF.COMPS:C10:1,2008-12-07T23:00:00Z,27.1690,-82.9260,4.0,304.286876977,26.6270539114,-99999.0,'1111122,1111122,1199999999' 
COMPS,ioos:station:USF.COMPS:C10:1,2008-12-08T00:00:00Z,27.1690,-82.9260,4.0,295.463345062,23.2594066992,-99999.0,'1111122,1111122,1199999999' 
COMPS,ioos:station:USF.COMPS:C10:1,2008-12-08T01:00:00Z,27.1690,-82.9260,4.0,292.833654178,20.6155281281,-99999.0,'1111122,1111122,1199999999' 
COMPS,ioos:station:USF.COMPS:C10:1,2008-12-08T02:00:00Z,27.1690,-82.9260,4.0,295.016893478,16.5529453572,-99999.0,'1111122,1111122,1199999999' 
COMPS,ioos:station:USF.COMPS:C10:1,2008-12-08T03:00:00Z,27.1690,-82.9260,4.0,284.931417178,15.5241746963,-99999.0,'1111122,1111122,1199999999' 
COMPS,ioos:station:USF.COMPS:C10:1,2008-12-08T04:00:00Z,27.1690,-82.9260,4.0,274.763641691,12.0415945788,-99999.0,'1111122,1111122,1199999999' 
COMPS,ioos:station:USF.COMPS:C10:1,2008-12-08T05:00:00Z,27.1690,-82.9260,4.0,270.0,11.0,-99999.0,'1111122,1111122,1199999999' 
COMPS,ioos:station:USF.COMPS:C10:1,2008-12-08T06:00:00Z,27.1690,-82.9260,4.0,260.537677792,6.0827625303,-99999.0,'1111122,1111122,1199999999' 
COMPS,ioos:station:USF.COMPS:C10:1,2008-12-08T07:00:00Z,27.1690,-82.9260,4.0,270.0,8.0,-99999.0,'1111122,1111122,1199999999' 
COMPS,ioos:station:USF.COMPS:C10:1,2008-12-08T09:00:00Z,27.1690,-82.9260,4.0,319.398705355,9.21954445729,-99999.0,'1111122,1111122,1199999999' 
COMPS,ioos:station:USF.COMPS:C10:1,2008-12-08T10:00:00Z,27.1690,-82.9260,4.0,306.869897646,10.0,-99999.0,'1111122,1111122,1199999999' 
COMPS,ioos:station:USF.COMPS:C10:1,2008-12-08T11:00:00Z,27.1690,-82.9260,4.0,311.185925166,10.6301458127,-99999.0,'1111122,1111122,1199999999' 
COMPS,ioos:station:USF.COMPS:C10:1,2008-12-08T12:00:00Z,27.1690,-82.9260,4.0,304.992020199,12.2065556157,-99999.0,'1111122,1111122,1199999999' 
COMPS,ioos:station:USF.COMPS:C10:1,2008-12-08T13:00:00Z,27.1690,-82.9260,4.0,302.005383208,9.43398113206,-99999.0,'1111122,1111122,1199999999' 
COMPS,ioos:station:USF.COMPS:C10:1,2008-12-08T14:00:00Z,27.1690,-82.9260,4.0,286.699244234,10.4403065089,-99999.0,'1111122,1111122,1199999999' 
COMPS,ioos:station:USF.COMPS:C10:1,2008-12-08T15:00:00Z,27.1690,-82.9260,4.0,285.255118703,11.401754251,-99999.0,'1111122,1111122,1199999999' 
COMPS,ioos:station:USF.COMPS:C10:1,2008-12-08T16:00:00Z,27.1690,-82.9260,4.0,270.0,9.0,-99999.0,'1111122,1111122,1199999999' 
COMPS,ioos:station:USF.COMPS:C10:1,2008-12-08T17:00:00Z,27.1690,-82.9260,4.0,270.0,6.0,-99999.0,'1111122,1111122,1199999999' 
COMPS,ioos:station:USF.COMPS:C10:1,2008-12-08T18:00:00Z,27.1690,-82.9260,4.0,206.565051177,2.2360679775,-99999.0,'1111122,1111122,1199999999' 
COMPS,ioos:station:USF.COMPS:C10:1,2008-12-08T19:00:00Z,27.1690,-82.9260,4.0,270.0,1.0,-99999.0,'1113322,1111122,1199999999' 
COMPS,ioos:station:USF.COMPS:C10:1,2008-12-08T20:00:00Z,27.1690,-82.9260,4.0,0.0,2.0,-99999.0,'1111122,1114422,1199999999' 
COMPS,ioos:station:USF.COMPS:C10:1,2008-12-08T21:00:00Z,27.1690,-82.9260,4.0,18.4349488229,3.16227766017,-99999.0,'1111122,1111122,1199999999' 
COMPS,ioos:station:USF.COMPS:C10:1,2008-12-08T22:00:00Z,27.1690,-82.9260,4.0,18.4349488229,3.16227766017,-99999.0,'1111122,1111122,1199999999' 
COMPS,ioos:station:USF.COMPS:C10:1,2008-12-08T23:00:00Z,27.1690,-82.9260,4.0,0.0,5.0,-99999.0,'1111122,1114422,1199999999' 
COMPS,ioos:station:USF.COMPS:C10:1,2008-12-09T00:00:00Z,27.1690,-82.9260,4.0,0.0,7.0,-99999.0,'1111122,1114422,1199999999' 
COMPS,ioos:station:USF.COMPS:C10:1,2008-12-09T01:00:00Z,27.1690,-82.9260,4.0,333.434948823,6.7082039325,-99999.0,'1111122,1111122,1199999999' 
COMPS,ioos:station:USF.COMPS:C10:1,2008-12-09T02:00:00Z,27.1690,-82.9260,4.0,315.0,4.24264068712,-99999.0,'1111122,1111122,1199999999' 
COMPS,ioos:station:USF.COMPS:C10:1,2008-12-09T03:00:00Z,27.1690,-82.9260,4.0,216.869897646,5.0,-99999.0,'1111122,1111122,1199999999' 
COMPS,ioos:station:USF.COMPS:C10:1,2008-12-09T04:00:00Z,27.1690,-82.9260,4.0,180.0,5.0,-99999.0,'1111122,1111122,1199999999' 
COMPS,ioos:station:USF.COMPS:C10:1,2008-12-09T05:00:00Z,27.1690,-82.9260,4.0,170.537677792,6.0827625303,-99999.0,'1111122,1111122,1199999999' 
COMPS,ioos:station:USF.COMPS:C10:1,2008-12-09T06:00:00Z,27.1690,-82.9260,4.0,140.194428908,7.81024967591,-99999.0,'1111122,1111122,1199999999' 
COMPS,ioos:station:USF.COMPS:C10:1,2008-12-09T07:00:00Z,27.1690,-82.9260,4.0,123.690067526,7.21110255093,-99999.0,'1111122,1111122,1199999999' 
COMPS,ioos:station:USF.COMPS:C10:1,2008-12-09T08:00:00Z,27.1690,-82.9260,4.0,120.963756532,11.6619037897,-99999.0,'1111122,1111122,1199999999' 
COMPS,ioos:station:USF.COMPS:C10:1,2008-12-09T09:00:00Z,27.1690,-82.9260,4.0,90.0,10.0,-99999.0,'1111122,1111122,1199999999' 
COMPS,ioos:station:USF.COMPS:C10:1,2008-12-09T10:00:00Z,27.1690,-82.9260,4.0,79.6951535312,11.1803398875,-99999.0,'1111122,1111122,1199999999' 
COMPS,ioos:station:USF.COMPS:C10:1,2008-12-09T11:00:00Z,27.1690,-82.9260,4.0,67.380135052,13.0,-99999.0,'1111122,1111122,1199999999' 
COMPS,ioos:station:USF.COMPS:C10:1,2008-12-09T12:00:00Z,27.1690,-82.9260,4.0,59.0362434679,11.6619037897,-99999.0,'1111122,1111122,1199999999' 
COMPS,ioos:station:USF.COMPS:C10:1,2008-12-09T13:00:00Z,27.1690,-82.9260,4.0,74.7448812969,11.401754251,-99999.0,'1111122,1111122,1199999999' 
COMPS,ioos:station:USF.COMPS:C10:1,2008-12-09T14:00:00Z,27.1690,-82.9260,4.0,71.5650511771,9.48683298051,-99999.0,'1111122,1111122,1199999999' 
COMPS,ioos:station:USF.COMPS:C10:1,2008-12-09T15:00:00Z,27.1690,-82.9260,4.0,80.537677792,6.0827625303,-99999.0,'1111122,1111122,1199999999' 
COMPS,ioos:station:USF.COMPS:C10:1,2008-12-09T16:00:00Z,27.1690,-82.9260,4.0,90.0,6.0,-99999.0,'1111122,1111122,1199999999' 
COMPS,ioos:station:USF.COMPS:C10:1,2008-12-09T17:00:00Z,27.1690,-82.9260,4.0,98.1301023542,7.07106781187,-99999.0,'1111122,1111122,1199999999' 
COMPS,ioos:station:USF.COMPS:C10:1,2008-12-09T18:00:00Z,27.1690,-82.9260,4.0,79.6951535312,11.1803398875,-99999.0,'1111122,1111122,1199999999' 
COMPS,ioos:station:USF.COMPS:C10:1,2008-12-09T19:00:00Z,27.1690,-82.9260,4.0,68.1985905136,10.7703296143,-99999.0,'1111122,1111122,1199999999' 
COMPS,ioos:station:USF.COMPS:C10:1,2008-12-09T20:00:00Z,27.1690,-82.9260,4.0,71.5650511771,12.6491106407,-99999.0,'1111122,1111122,1199999999' 
COMPS,ioos:station:USF.COMPS:C10:1,2008-12-09T21:00:00Z,27.1690,-82.9260,4.0,52.4314079712,16.4012194669,-99999.0,'1111122,1111122,1199999999' 
COMPS,ioos:station:USF.COMPS:C10:1,2008-12-09T22:00:00Z,27.1690,-82.9260,4.0,42.8789036033,19.1049731745,-99999.0,'1111122,1111122,1199999999' 
COMPS,ioos:station:USF.COMPS:C10:1,2008-12-09T23:00:00Z,27.1690,-82.9260,4.0,30.4655449195,19.7230829233,-99999.0,'1111122,1111122,1199999999' 
COMPS,ioos:station:USF.COMPS:C10:1,2008-12-10T00:00:00Z,27.1690,-82.9260,4.0,15.5241109968,18.6815416923,-99999.0,'1111122,1111122,1199999999' 
COMPS,ioos:station:USF.COMPS:C10:1,2008-12-10T01:00:00Z,27.1690,-82.9260,4.0,6.70983680776,17.1172427686,-99999.0,'1111122,1111122,1199999999' 
COMPS,ioos:station:USF.COMPS:C10:1,2008-12-10T02:00:00Z,27.1690,-82.9260,4.0,0.0,15.0,-99999.0,'1111122,1114422,1199999999' 
COMPS,ioos:station:USF.COMPS:C10:1,2008-12-10T03:00:00Z,27.1690,-82.9260,4.0,353.659808254,9.05538513814,-99999.0,'1111122,1111122,1199999999' 
COMPS,ioos:station:USF.COMPS:C10:1,2008-12-10T04:00:00Z,27.1690,-82.9260,4.0,303.690067526,3.60555127546,-99999.0,'1111122,1111122,1199999999' 
COMPS,ioos:station:USF.COMPS:C10:1,2008-12-10T05:00:00Z,27.1690,-82.9260,4.0,198.434948823,3.16227766017,-99999.0,'1111122,1111122,1199999999' 
COMPS,ioos:station:USF.COMPS:C10:1,2008-12-10T06:00:00Z,27.1690,-82.9260,4.0,108.434948823,3.16227766017,-99999.0,'1111122,1111122,1199999999' 
COMPS,ioos:station:USF.COMPS:C10:1,2008-12-10T07:00:00Z,27.1690,-82.9260,4.0,143.130102354,5.0,-99999.0,'1111122,1111122,1199999999' 
COMPS,ioos:station:USF.COMPS:C10:1,2008-12-10T08:00:00Z,27.1690,-82.9260,4.0,101.309932474,5.09901951359,-99999.0,'1111122,1111122,1199999999' 